Location: Poughquag
(41.6090°N, 73.6820°W)
Time: 11:56:49
(UTC-04:00)

Envisat - Visible Passes

Search period start: 12 April 2021 00:00
Search period end: 22 April 2021 00:00
Orbit: 764 x 766 km, 98.1° (Epoch: 11 April)

Date Brightness Start Highest point End Pass type
(mag) Time Alt. Az. Time Alt. Az. Time Alt. Az.
13 Apr 5.4 05:38:44 10° NE 05:43:00 26° E 05:47:14 10° SSE visible
14 Apr 6.2 05:04:04 10° ENE 05:05:47 12° E 05:07:31 10° ESE visible
16 Apr 5.7 05:27:39 10° NE 05:31:27 21° E 05:35:15 10° SE visible
19 Apr 5.8 05:16:44 10° NE 05:19:55 16° E 05:23:04 10° SE visible
